Hourly Weather Lubin

Today, 12 August, Wednesday

Time Temperature Precipitation Wind Pressure Humidity
00:00 +20°C° 0 mm 2 mps 753 mmHg 74%
01:00 +19°C° 0 mm 2 mps 753 mmHg 65%
02:00 +19°C° 0 mm 2 mps 753 mmHg 68%
03:00 +18°C° 0 mm 2 mps 753 mmHg 71%
04:00 +19°C° 0 mm 1 mps 753 mmHg 75%
05:00 +19°C° 0 mm 2 mps 753 mmHg 75%
06:00 +19°C° 0 mm 2 mps 753 mmHg 75%
07:00 +20°C° 0 mm 2 mps 753 mmHg 75%
08:00 +23°C° 0 mm 2 mps 753 mmHg 71%
09:00 +25°C° 0 mm 3 mps 753 mmHg 66%
10:00 +26°C° 0 mm 3 mps 753 mmHg 61%
11:00 +27°C° 0 mm 3 mps 753 mmHg 58%
12:00 +28°C° 0 mm 3 mps 753 mmHg 54%
13:00 +29°C° 0 mm 3 mps 753 mmHg 50%
14:00 +29°C° 0 mm 3 mps 753 mmHg 50%
15:00 +29°C° 0 mm 3 mps 752 mmHg 49%
16:00 +29°C° 0 mm 3 mps 752 mmHg 49%
17:00 +28°C° 0 mm 3 mps 752 mmHg 53%
18:00 +26°C° 0 mm 3 mps 752 mmHg 58%
19:00 +25°C° 0 mm 3 mps 752 mmHg 63%
20:00 +24°C° 0 mm 3 mps 752 mmHg 62%
21:00 +22°C° 0 mm 3 mps 752 mmHg 62%
22:00 +21°C° 0 mm 3 mps 752 mmHg 62%
23:00 +20°C° 0 mm 3 mps 752 mmHg 63%

Tomorrow, 13 August, Thursday

Time Temperature Precipitation Wind Pressure Humidity
00:00 +20°C° 0 mm 3 mps 752 mmHg 65%
01:00 +19°C° 0 mm 3 mps 751 mmHg 66%
02:00 +19°C° 0 mm 2 mps 751 mmHg 68%
03:00 +18°C° 0 mm 2 mps 751 mmHg 70%
04:00 +18°C° 0 mm 2 mps 751 mmHg 72%
05:00 +19°C° 0 mm 2 mps 751 mmHg 71%
06:00 +20°C° 0 mm 2 mps 751 mmHg 69%
07:00 +21°C° 0 mm 2 mps 751 mmHg 68%
08:00 +24°C° 0 mm 2 mps 751 mmHg 63%
09:00 +25°C° 0 mm 3 mps 751 mmHg 58%
10:00 +27°C° 0 mm 3 mps 751 mmHg 52%
11:00 +28°C° 0 mm 3 mps 751 mmHg 50%
12:00 +29°C° 0 mm 2 mps 750 mmHg 47%
13:00 +30°C° 0 mm 2 mps 750 mmHg 44%
14:00 +30°C° 0 mm 2 mps 750 mmHg 43%
15:00 +30°C° 0 mm 2 mps 750 mmHg 41%
16:00 +31°C° 0 mm 1 mps 749 mmHg 39%
17:00 +29°C° 0 mm 2 mps 749 mmHg 46%
18:00 +27°C° 0 mm 2 mps 749 mmHg 52%
19:00 +26°C° 0 mm 3 mps 749 mmHg 59%
20:00 +25°C° 0 mm 3 mps 749 mmHg 60%
21:00 +24°C° 0 mm 2 mps 749 mmHg 61%
22:00 +23°C° 0 mm 2 mps 749 mmHg 62%
23:00 +21°C° 0 mm 2 mps 749 mmHg 62%

Day after tomorrow, 14 August, Friday

Time Temperature Precipitation Wind Pressure Humidity
00:00 +20°C° 0 mm 2 mps 749 mmHg 62%
01:00 +20°C° 0 mm 2 mps 749 mmHg 63%
02:00 +19°C° 0 mm 2 mps 749 mmHg 64%
03:00 +19°C° 0 mm 2 mps 749 mmHg 66%
04:00 +18°C° 0 mm 2 mps 749 mmHg 68%
05:00 +19°C° 0 mm 2 mps 749 mmHg 67%
06:00 +20°C° 0 mm 2 mps 749 mmHg 65%
07:00 +21°C° 0 mm 2 mps 749 mmHg 64%
08:00 +24°C° 0 mm 2 mps 749 mmHg 58%
09:00 +26°C° 0 mm 3 mps 749 mmHg 53%
10:00 +27°C° 0 mm 3 mps 749 mmHg 47%
11:00 +28°C° 0 mm 3 mps 749 mmHg 44%
12:00 +29°C° 0 mm 3 mps 749 mmHg 41%
13:00 +30°C° 0 mm 3 mps 748 mmHg 39%
14:00 +30°C° 0 mm 3 mps 748 mmHg 38%
15:00 +30°C° 0 mm 3 mps 748 mmHg 38%
16:00 +29°C° 0 mm 3 mps 748 mmHg 37%
17:00 +28°C° 0 mm 3 mps 748 mmHg 44%
18:00 +26°C° 0 mm 3 mps 748 mmHg 50%
19:00 +24°C° 0 mm 3 mps 748 mmHg 56%
20:00 +24°C° 0 mm 2 mps 749 mmHg 57%
21:00 +23°C° 0 mm 2 mps 749 mmHg 58%
22:00 +21°C° 0 mm 2 mps 749 mmHg 59%
23:00 +21°C° 0 mm 2 mps 749 mmHg 61%

15 August, Saturday

Time Temperature Precipitation Wind Pressure Humidity
00:00 +20°C° 0 mm 2 mps 749 mmHg 63%
01:00 +20°C° 0 mm 2 mps 749 mmHg 65%
02:00 +19°C° 0 mm 2 mps 749 mmHg 67%
03:00 +19°C° 0 mm 2 mps 749 mmHg 70%
04:00 +18°C° 0 mm 2 mps 749 mmHg 72%
05:00 +19°C° 0 mm 2 mps 749 mmHg 71%
06:00 +20°C° 0 mm 2 mps 750 mmHg 70%
07:00 +20°C° 0 mm 2 mps 750 mmHg 69%
08:00 +22°C° 0 mm 3 mps 750 mmHg 63%
09:00 +24°C° 0 mm 3 mps 750 mmHg 58%
10:00 +25°C° 0 mm 4 mps 750 mmHg 52%
11:00 +26°C° 0 mm 4 mps 750 mmHg 51%
12:00 +27°C° 0 mm 4 mps 750 mmHg 49%
13:00 +27°C° 0 mm 4 mps 750 mmHg 47%
14:00 +27°C° 0 mm 4 mps 750 mmHg 46%
15:00 +27°C° 0 mm 4 mps 750 mmHg 45%
16:00 +27°C° 0 mm 4 mps 749 mmHg 44%
17:00 +26°C° 0 mm 3 mps 749 mmHg 49%
18:00 +25°C° 0 mm 3 mps 749 mmHg 55%
19:00 +23°C° 0 mm 2 mps 749 mmHg 60%
20:00 +21°C° 0 mm 2 mps 750 mmHg 62%
21:00 +20°C° 0 mm 3 mps 750 mmHg 65%
22:00 +20°C° 0 mm 3 mps 750 mmHg 67%
23:00 +19°C° 0 mm 3 mps 750 mmHg 70%

16 August, Sunday

Time Temperature Precipitation Wind Pressure Humidity
00:00 +18°C° 0 mm 3 mps 750 mmHg 73%
01:00 +18°C° 0 mm 2 mps 750 mmHg 76%
02:00 +17°C° 0 mm 2 mps 750 mmHg 79%
03:00 +17°C° 0 mm 2 mps 750 mmHg 81%
04:00 +16°C° 0 mm 2 mps 750 mmHg 84%
05:00 +17°C° 0 mm 3 mps 750 mmHg 80%
06:00 +18°C° 0 mm 3 mps 750 mmHg 77%
07:00 +19°C° 0 mm 4 mps 750 mmHg 73%
08:00 +20°C° 0 mm 4 mps 750 mmHg 67%
09:00 +22°C° 0 mm 5 mps 750 mmHg 61%
10:00 +23°C° 0 mm 5 mps 750 mmHg 56%
11:00 +26°C° 0 mm 5 mps 750 mmHg 52%
12:00 +27°C° 0 mm 5 mps 749 mmHg 49%
13:00 +28°C° 0 mm 5 mps 749 mmHg 45%
14:00 +28°C° 0 mm 5 mps 749 mmHg 45%
15:00 +28°C° 0 mm 5 mps 749 mmHg 44%
16:00 +29°C° 0 mm 5 mps 748 mmHg 43%
17:00 +27°C° 0 mm 4 mps 748 mmHg 49%
18:00 +26°C° 0 mm 4 mps 748 mmHg 55%
19:00 +24°C° 0 mm 3 mps 748 mmHg 61%
20:00 +22°C° 0 mm 3 mps 748 mmHg 64%
21:00 +22°C° 0 mm 3 mps 748 mmHg 67%
22:00 +21°C° 0 mm 3 mps 748 mmHg 70%
23:00 +20°C° 0 mm 3 mps 748 mmHg 72%

17 August, Monday

Time Temperature Precipitation Wind Pressure Humidity
00:00 +20°C° 0 mm 3 mps 748 mmHg 75%
01:00 +19°C° 0 mm 2 mps 748 mmHg 77%
02:00 +19°C° 0 mm 2 mps 748 mmHg 79%
03:00 +19°C° 0 mm 2 mps 748 mmHg 81%
04:00 +19°C° 0 mm 2 mps 748 mmHg 83%
05:00 +20°C° 0 mm 2 mps 748 mmHg 79%
06:00 +21°C° 0 mm 3 mps 748 mmHg 76%
07:00 +24°C° 0 mm 3 mps 748 mmHg 73%
08:00 +25°C° 0 mm 3 mps 748 mmHg 66%
09:00 +27°C° 0 mm 4 mps 748 mmHg 60%
10:00 +29°C° 0 mm 4 mps 748 mmHg 53%
11:00 +30°C° 0 mm 4 mps 748 mmHg 51%
12:00 +32°C° 0 mm 4 mps 748 mmHg 49%
13:00 +33°C° 0 mm 4 mps 748 mmHg 47%
14:00 +33°C° 0 mm 4 mps 747 mmHg 47%
15:00 +33°C° 0 mm 4 mps 747 mmHg 48%
16:00 +32°C° 0 mm 4 mps 747 mmHg 49%
17:00 +30°C° 0 mm 4 mps 747 mmHg 55%
18:00 +29°C° 0 mm 3 mps 747 mmHg 61%
19:00 +27°C° 0 mm 3 mps 747 mmHg 67%
20:00 +26°C° 0 mm 3 mps 747 mmHg 70%
21:00 +25°C° 0 mm 3 mps 747 mmHg 73%
22:00 +24°C° 0 mm 3 mps 747 mmHg 76%
23:00 +24°C° 0 mm 2 mps 747 mmHg 77%
Show more